Погода в Большакове

Россия / Калининградская область     54°52′32″N   21°39′09″E
темп.,
°C
ветер,
м/с
пор.,
м/с
влажн.,
%
обл.,
%
осадки,
мм/ч
давл.,
гПа
погр.,
м
6 марта, сб
сб623:00−3сз37771 0.0 1023235
02:00−3сз23741 0.0 102552
05:00−3зсз22710 0.0 102543
08:00−3юз246715 0.0 1026120
11:00+2з585242 0.0 10251335
14:00+4з7104953 0.0 10231602
17:00+3зюз612570 0.0 10201293
20:00+1зюз8159635 0.1 1017922
7 марта, вс
вс723:00+3з91777100 0.1 10141215
02:00+3з101781100 0.1 10111076
05:00+2зсз81494100 0.1 1009840
08:00−1з51178100 0.6 10101070
11:00+3зсз8135793 0.0 10091424
14:00+2сз10144669 0.0 10091707
17:00+1сз9145129 0.0 10091852
20:00−2сз4116645 0.0 1011839
8 марта, пн
пн823:00−1сз4107340 0.1 10121170
02:00−2сз497567 0.1 1013941
05:00−2сз489058 0.1 1013620
08:00−2сз488967 0.4 1015657
11:00−1ссз6857100 0.1 10161154
14:00+1ссз574779 0.1 10181310
17:000ссз57510 0.0 10191476
20:00−3ссз37657 0.0 1021200
9 марта, вт
вт923:00−4с226520 0.0 102260
02:00−4юв116158 0.0 102321
05:00−4ю2461100 0.0 1022146
08:00−3ююз365598 0.0 1022287
11:00−1юз454897 0.0 1022795
14:00+1юз464698 0.0 10211298
17:000юз355199 0.0 10201218
20:00−1ююз2264100 0.0 102054
10 марта, ср
ср1023:00−2ююз2474100 0.0 1019132
02:00−2юз238595 0.0 101963
05:00−3ююз229671 0.0 101832
08:00−2ююз129767 0.0 101873
11:00+1ююв227683 0.0 1019528
14:00+2ю347090 0.0 1018760
17:00+1ююз2379100 0.0 1018298
20:000ююв2596100 0.1 1017171